{"data":{"norad_id":43619,"epoch":"2026-05-25T04:22:59.306304Z","epoch_age_seconds":69919,"freshness":"FRESH","line1":"1 43619U 18071B   26145.18263086  .00000378  00000+0  38313-4 0  9991","line2":"2 43619  97.5091  18.4427 0001596 100.4287 259.7115 14.96214184419492","mean_motion":14.96214184,"eccentricity":0.0001596,"inclination_deg":97.5091,"raan_deg":18.4427,"arg_perigee_deg":100.4287,"mean_anomaly_deg":259.7115,"bstar":3.8313e-5,"rev_number":41949,"period_min":96.242905287148,"perigee_km":577.49629033818,"apogee_km":579.71688289103,"semimajor_km":6956.7435866146,"source":"CELESTRAK","updated_at":"2026-05-25T13:37:55.860991Z"}}